Time,TemperatureF,DewpointF,PressureIn,WindDirection,WindDirectionDegrees,WindSpeedMPH,WindSpeedGustMPH,Humidity,HourlyPrecipIn,Conditions,Clouds,dailyrainin,SolarRadiationWatts/m^2,SoftwareType,DateUTC
2013-10-18 00:01:00,68.1,64.7,29.88,WSW,246,0.0,0.0,89,0.00,BKN,,0.00,0.0,WeatherDisplay:10.37,2013-10-18 04:01:00,
2013-10-18 00:06:00,68.1,64.7,29.88,WSW,246,0.0,1.0,89,0.00,BKN,,0.00,0.0,WeatherDisplay:10.37,2013-10-18 04:06:00,
2013-10-18 00:11:00,67.9,64.5,29.88,WSW,248,0.0,0.0,89,0.00,BKN,,0.00,0.0,WeatherDisplay:10.37,2013-10-18 04:11:00,
2013-10-18 00:16:00,67.9,64.9,29.88,WSW,251,0.0,0.0,90,0.00,BKN,,0.00,0.0,WeatherDisplay:10.37,2013-10-18 04:16:00,
2013-10-18 00:21:00,67.8,64.8,29.88,WSW,257,0.0,0.0,90,0.00,BKN,,0.00,0.0,WeatherDisplay:10.37,2013-10-18 04:21:00,
2013-10-18 00:26:00,67.8,64.8,29.88,West,260,0.0,1.0,90,0.00,BKN,,0.00,0.0,WeatherDisplay:10.37,2013-10-18 04:26:00,
2013-10-18 00:31:00,67.6,64.9,29.88,West,267,0.0,1.0,91,0.00,BKN,,0.00,0.0,WeatherDisplay:10.37,2013-10-18 04:31:00,
2013-10-18 00:36:00,67.6,64.9,29.88,West,270,0.0,0.0,91,0.00,BKN,,0.00,0.0,WeatherDisplay:10.37,2013-10-18 04:36:00,
2013-10-18 00:41:00,67.4,64.7,29.88,West,270,0.0,0.0,91,0.00,BKN,,0.00,0.0,WeatherDisplay:10.37,2013-10-18 04:41:00,
2013-10-18 00:46:00,67.4,64.7,29.88,West,270,0.0,0.0,91,0.00,BKN,,0.00,0.0,WeatherDisplay:10.37,2013-10-18 04:46:00,
2013-10-18 00:56:00,67.3,64.6,29.88,West,270,0.0,0.0,91,0.00,BKN,,0.00,0.0,WeatherDisplay:10.37,2013-10-18 04:56:00,
2013-10-18 01:01:00,67.3,64.6,29.88,West,270,0.0,0.0,91,0.00,BKN,,0.00,0.0,WeatherDisplay:10.37,2013-10-18 05:01:00,
2013-10-18 01:06:00,67.3,64.6,29.88,West,270,0.0,0.0,91,0.00,BKN,,0.00,0.0,WeatherDisplay:10.37,2013-10-18 05:06:00,
2013-10-18 01:11:00,67.1,64.7,29.88,SSE,158,0.0,0.0,92,0.00,BKN,,0.00,0.0,WeatherDisplay:10.37,2013-10-18 05:11:00,
2013-10-18 01:16:00,67.1,64.7,29.87,ESE,120,0.0,0.0,92,0.00,BKN,,0.00,0.0,WeatherDisplay:10.37,2013-10-18 05:16:00,
2013-10-18 01:21:00,66.9,64.5,29.87,ESE,120,0.0,0.0,92,0.00,BKN,,0.00,0.0,WeatherDisplay:10.37,2013-10-18 05:21:00,
2013-10-18 01:26:00,66.9,64.5,29.87,ESE,120,0.0,0.0,92,0.00,BKN,,0.00,0.0,WeatherDisplay:10.37,2013-10-18 05:26:00,
2013-10-18 01:31:00,66.8,64.4,29.87,ESE,120,0.0,0.0,92,0.00,BKN,,0.00,0.0,WeatherDisplay:10.37,2013-10-18 05:31:00,
2013-10-18 01:36:00,66.8,64.4,29.87,ESE,120,0.0,0.0,92,0.00,BKN,,0.00,0.0,WeatherDisplay:10.37,2013-10-18 05:36:00,
2013-10-18 01:41:00,66.6,64.2,29.87,ESE,120,0.0,0.0,92,0.00,BKN,,0.00,0.0,WeatherDisplay:10.37,2013-10-18 05:41:00,
2013-10-18 01:46:00,66.6,64.2,29.87,ESE,120,0.0,0.0,92,0.00,BKN,,0.00,0.0,WeatherDisplay:10.37,2013-10-18 05:46:00,
2013-10-18 01:51:00,66.6,64.2,29.88,ESE,120,0.0,0.0,92,0.00,BKN,,0.00,0.0,WeatherDisplay:10.37,2013-10-18 05:51:00,
2013-10-18 01:56:00,66.4,64.0,29.88,ESE,120,0.0,0.0,92,0.00,BKN,,0.00,0.0,WeatherDisplay:10.37,2013-10-18 05:56:00,
2013-10-18 02:01:00,66.4,64.0,29.88,ESE,120,0.0,0.0,92,0.00,SCT,,0.00,0.0,WeatherDisplay:10.37,2013-10-18 06:01:00,
2013-10-18 02:11:00,66.4,64.0,29.88,ESE,120,0.0,0.0,92,0.00,SCT,,0.00,0.0,WeatherDisplay:10.37,2013-10-18 06:11:00,
2013-10-18 02:16:00,66.4,64.0,29.88,ESE,120,0.0,0.0,92,0.00,SCT,,0.00,0.0,WeatherDisplay:10.37,2013-10-18 06:16:00,
2013-10-18 02:21:00,66.3,63.9,29.88,ESE,120,0.0,0.0,92,0.00,SCT,,0.00,0.0,WeatherDisplay:10.37,2013-10-18 06:21:00,
2013-10-18 02:26:00,66.3,63.9,29.88,ESE,120,0.0,0.0,92,0.00,SCT,,0.00,0.0,WeatherDisplay:10.37,2013-10-18 06:26:00,
2013-10-18 02:31:00,66.3,64.2,29.88,ESE,120,0.0,0.0,93,0.00,SCT,,0.00,0.0,WeatherDisplay:10.37,2013-10-18 06:31:00,
2013-10-18 02:36:00,66.3,64.2,29.88,ESE,120,0.0,0.0,93,0.00,SCT,,0.00,0.0,WeatherDisplay:10.37,2013-10-18 06:36:00,
2013-10-18 02:41:00,66.3,64.2,29.88,ESE,120,0.0,0.0,93,0.00,SCT,,0.00,0.0,WeatherDisplay:10.37,2013-10-18 06:41:00,
2013-10-18 02:46:00,66.1,64.0,29.88,ESE,120,0.0,0.0,93,0.00,SCT,,0.00,0.0,WeatherDisplay:10.37,2013-10-18 06:46:00,
2013-10-18 02:51:00,66.1,64.0,29.88,ESE,120,0.0,0.0,93,0.00,SCT,,0.00,0.0,WeatherDisplay:10.37,2013-10-18 06:51:00,
2013-10-18 02:56:00,66.1,64.0,29.88,ESE,120,0.0,0.0,93,0.00,SCT,,0.00,0.0,WeatherDisplay:10.37,2013-10-18 06:56:00,
2013-10-18 03:01:00,66.1,64.0,29.88,ESE,120,0.0,0.0,93,0.00,BKN,,0.00,0.0,WeatherDisplay:10.37,2013-10-18 07:01:00,
2013-10-18 03:11:00,66.0,63.9,29.88,ESE,120,0.0,0.0,93,0.00,BKN,,0.00,0.0,WeatherDisplay:10.37,2013-10-18 07:11:00,
2013-10-18 03:16:00,66.0,63.9,29.88,ESE,120,0.0,0.0,93,0.00,BKN,,0.00,0.0,WeatherDisplay:10.37,2013-10-18 07:16:00,
2013-10-18 03:21:00,66.0,63.9,29.88,ESE,120,0.0,0.0,93,0.00,BKN,,0.00,0.0,WeatherDisplay:10.37,2013-10-18 07:21:00,
2013-10-18 03:26:00,66.0,64.2,29.88,ESE,120,0.0,0.0,94,0.00,BKN,,0.00,0.0,WeatherDisplay:10.37,2013-10-18 07:26:00,
2013-10-18 03:31:00,66.0,64.2,29.88,ESE,120,0.0,0.0,94,0.00,BKN,,0.00,0.0,WeatherDisplay:10.37,2013-10-18 07:31:00,
2013-10-18 03:36:00,66.0,64.2,29.88,ESE,120,0.0,0.0,94,0.00,BKN,,0.00,0.0,WeatherDisplay:10.37,2013-10-18 07:36:00,
2013-10-18 03:41:00,66.0,64.2,29.88,ESE,120,0.0,0.0,94,0.00,BKN,,0.00,0.0,WeatherDisplay:10.37,2013-10-18 07:41:00,
2013-10-18 03:46:00,66.0,64.2,29.88,ESE,120,0.0,0.0,94,0.00,BKN,,0.00,0.0,WeatherDisplay:10.37,2013-10-18 07:46:00,
2013-10-18 03:51:00,66.0,64.2,29.88,ESE,120,0.0,0.0,94,0.00,BKN,,0.00,0.0,WeatherDisplay:10.37,2013-10-18 07:51:00,
2013-10-18 03:56:00,66.0,64.2,29.88,ESE,120,0.0,0.0,94,0.00,BKN,,0.00,0.0,WeatherDisplay:10.37,2013-10-18 07:56:00,
2013-10-18 04:01:00,66.0,64.5,29.88,ESE,120,0.0,0.0,95,0.00,BKN,,0.00,0.0,WeatherDisplay:10.37,2013-10-18 08:01:00,
2013-10-18 04:11:00,66.1,64.6,29.88,ESE,120,0.0,0.0,95,0.00,BKN,,0.00,0.0,WeatherDisplay:10.37,2013-10-18 08:11:00,
2013-10-18 04:16:00,66.1,64.6,29.89,ESE,120,0.0,0.0,95,0.00,BKN,,0.00,0.0,WeatherDisplay:10.37,2013-10-18 08:16:00,
2013-10-18 04:21:00,66.1,64.6,29.89,ESE,120,0.0,0.0,95,0.00,BKN,,0.00,0.0,WeatherDisplay:10.37,2013-10-18 08:21:00,
2013-10-18 04:31:00,66.1,64.6,29.90,ESE,120,0.0,0.0,95,0.00,BKN,,0.00,0.0,WeatherDisplay:10.37,2013-10-18 08:31:00,
2013-10-18 04:36:00,66.1,64.6,29.90,East,81,0.0,0.0,95,0.00,BKN,,0.00,0.0,WeatherDisplay:10.37,2013-10-18 08:36:00,
2013-10-18 04:41:00,66.1,64.6,29.90,NNE,15,0.0,2.0,95,0.00,BKN,,0.00,0.0,WeatherDisplay:10.37,2013-10-18 08:41:00,
2013-10-18 04:46:00,66.0,64.5,29.90,North,5,0.0,5.0,95,0.00,BKN,,0.00,0.0,WeatherDisplay:10.37,2013-10-18 08:46:00,
2013-10-18 04:51:00,65.3,63.6,29.90,North,9,0.0,1.0,94,0.00,BKN,,0.00,0.0,WeatherDisplay:10.37,2013-10-18 08:51:00,
2013-10-18 04:56:00,64.7,62.7,29.90,North,9,0.0,0.0,93,0.00,BKN,,0.00,0.0,WeatherDisplay:10.37,2013-10-18 08:56:00,
2013-10-18 05:01:00,64.1,61.4,29.91,North,3,0.0,0.0,91,0.00,BKN,,0.00,0.0,WeatherDisplay:10.37,2013-10-18 09:01:00,
2013-10-18 05:11:00,63.4,59.8,29.91,North,359,0.0,2.0,88,0.00,BKN,,0.00,0.0,WeatherDisplay:10.37,2013-10-18 09:11:00,
2013-10-18 05:16:00,63.2,59.0,29.91,North,1,0.0,0.0,86,0.00,BKN,,0.00,0.0,WeatherDisplay:10.37,2013-10-18 09:16:00,
2013-10-18 05:21:00,63.1,58.2,29.91,North,6,0.0,3.0,84,0.00,BKN,,0.00,0.0,WeatherDisplay:10.37,2013-10-18 09:21:00,
2013-10-18 05:26:00,62.9,57.3,29.91,North,358,0.0,0.0,82,0.00,BKN,,0.00,0.0,WeatherDisplay:10.37,2013-10-18 09:26:00,
2013-10-18 05:31:00,62.9,57.0,29.92,North,351,0.0,0.0,81,0.00,BKN,,0.00,0.0,WeatherDisplay:10.37,2013-10-18 09:31:00,
2013-10-18 05:36:00,62.7,56.8,29.93,North,351,0.0,0.0,81,0.00,BKN,,0.00,0.0,WeatherDisplay:10.37,2013-10-18 09:36:00,
2013-10-18 05:41:00,62.7,56.4,29.93,North,351,0.0,0.0,80,0.00,BKN,,0.00,0.0,WeatherDisplay:10.37,2013-10-18 09:41:00,
2013-10-18 05:46:00,62.6,56.7,29.93,North,353,0.0,0.0,81,0.00,BKN,,0.00,0.0,WeatherDisplay:10.37,2013-10-18 09:46:00,
2013-10-18 05:51:00,62.4,56.1,29.93,North,357,0.0,0.0,80,0.00,BKN,,0.00,0.0,WeatherDisplay:10.37,2013-10-18 09:51:00,
2013-10-18 05:56:00,62.4,56.1,29.93,North,358,0.0,0.0,80,0.00,BKN,,0.00,0.0,WeatherDisplay:10.37,2013-10-18 09:56:00,
2013-10-18 06:01:00,62.3,56.0,29.93,North,356,0.0,0.0,80,0.00,SCT,,0.00,0.0,WeatherDisplay:10.37,2013-10-18 10:01:00,
2013-10-18 06:11:00,62.1,56.2,29.93,North,357,0.0,0.0,81,0.00,SCT,,0.00,0.0,WeatherDisplay:10.37,2013-10-18 10:11:00,
2013-10-18 06:16:00,62.0,56.1,29.94,North,4,0.0,0.0,81,0.00,SCT,,0.00,0.0,WeatherDisplay:10.37,2013-10-18 10:16:00,
2013-10-18 06:21:00,62.0,56.1,29.94,North,5,0.0,0.0,81,0.00,SCT,,0.00,0.0,WeatherDisplay:10.37,2013-10-18 10:21:00,
2013-10-18 06:26:00,62.0,56.1,29.94,North,5,0.0,0.0,81,0.00,SCT,,0.00,0.0,WeatherDisplay:10.37,2013-10-18 10:26:00,
2013-10-18 06:31:00,61.8,55.9,29.94,North,5,0.0,0.0,81,0.00,SCT,,0.00,0.0,WeatherDisplay:10.37,2013-10-18 10:31:00,
2013-10-18 06:36:00,61.6,55.4,29.94,North,3,0.0,0.0,80,0.00,SCT,,0.00,0.0,WeatherDisplay:10.37,2013-10-18 10:36:00,
2013-10-18 06:41:00,61.5,55.3,29.94,North,1,0.0,0.0,80,0.00,SCT,,0.00,0.0,WeatherDisplay:10.37,2013-10-18 10:41:00,
2013-10-18 06:46:00,61.3,55.1,29.94,North,360,0.0,0.0,80,0.00,SCT,,0.00,0.0,WeatherDisplay:10.37,2013-10-18 10:46:00,
2013-10-18 06:56:00,61.2,55.4,29.95,North,360,0.0,0.0,81,0.00,SCT,,0.00,0.0,WeatherDisplay:10.37,2013-10-18 10:56:00,
2013-10-18 07:01:00,61.2,55.3,29.95,North,360,0.0,0.0,81,0.00,SCT,,0.00,0.0,WeatherDisplay:10.37,2013-10-18 11:01:00,
2013-10-18 07:11:00,61.0,55.1,29.95,North,360,0.0,0.0,81,0.00,SCT,,0.00,0.0,WeatherDisplay:10.37,2013-10-18 11:11:00,
2013-10-18 07:16:00,60.9,54.7,29.95,North,360,0.0,0.0,80,0.00,SCT,,0.00,0.0,WeatherDisplay:10.37,2013-10-18 11:16:00,
2013-10-18 07:21:00,60.7,54.5,29.95,North,360,0.0,0.0,80,0.00,SCT,,0.00,0.0,WeatherDisplay:10.37,2013-10-18 11:21:00,
2013-10-18 07:26:00,60.5,54.0,29.95,North,2,0.0,0.0,79,0.00,SCT,,0.00,0.0,WeatherDisplay:10.37,2013-10-18 11:26:00,
2013-10-18 07:31:00,60.4,54.2,29.96,North,4,0.0,0.0,80,0.00,SCT,,0.00,5.8,WeatherDisplay:10.37,2013-10-18 11:31:00,
2013-10-18 07:36:00,60.2,53.7,29.96,North,1,0.0,0.0,79,0.00,SCT,,0.00,8.1,WeatherDisplay:10.37,2013-10-18 11:36:00,
2013-10-18 07:41:00,60.1,53.9,29.96,North,360,0.0,0.0,80,0.00,SCT,,0.00,12.7,WeatherDisplay:10.37,2013-10-18 11:41:00,
2013-10-18 07:46:00,59.9,53.7,29.97,North,360,0.0,0.0,80,0.00,SCT,,0.00,12.7,WeatherDisplay:10.37,2013-10-18 11:46:00,
2013-10-18 07:51:00,59.8,54.0,29.97,North,360,0.0,0.0,81,0.00,SCT,,0.00,13.8,WeatherDisplay:10.37,2013-10-18 11:51:00,
2013-10-18 07:56:00,59.8,54.0,29.97,North,360,0.0,0.0,81,0.00,SCT,,0.00,24.1,WeatherDisplay:10.37,2013-10-18 11:56:00,
2013-10-18 08:01:00,59.6,54.1,29.98,North,360,0.0,0.0,82,0.00,SCT,,0.00,29.9,WeatherDisplay:10.37,2013-10-18 12:01:00,
2013-10-18 08:11:00,59.5,54.0,29.98,North,354,0.0,0.0,82,0.00,SCT,,0.00,38.0,WeatherDisplay:10.37,2013-10-18 12:11:00,
2013-10-18 08:16:00,59.3,53.8,29.98,North,351,0.0,0.0,82,0.00,SCT,,0.00,24.1,WeatherDisplay:10.37,2013-10-18 12:16:00,
2013-10-18 08:21:00,59.3,53.4,29.99,North,351,0.0,0.0,81,0.00,SCT,,0.00,18.4,WeatherDisplay:10.37,2013-10-18 12:21:00,
2013-10-18 08:26:00,59.0,52.1,29.99,North,350,0.0,5.0,78,0.00,SCT,,0.00,16.1,WeatherDisplay:10.37,2013-10-18 12:26:00,
2013-10-18 08:31:00,58.9,51.7,29.99,North,353,1.0,6.0,77,0.00,SCT,,0.00,36.8,WeatherDisplay:10.37,2013-10-18 12:31:00,
2013-10-18 08:36:00,58.7,51.2,29.99,North,2,1.0,2.0,76,0.00,SCT,,0.00,44.9,WeatherDisplay:10.37,2013-10-18 12:36:00,
2013-10-18 08:41:00,58.7,50.8,29.99,North,5,0.0,2.0,75,0.00,SCT,,0.00,54.0,WeatherDisplay:10.37,2013-10-18 12:41:00,
2013-10-18 08:46:00,58.6,50.7,30.00,North,4,0.0,0.0,75,0.00,SCT,,0.00,66.7,WeatherDisplay:10.37,2013-10-18 12:46:00,
2013-10-18 08:51:00,58.6,50.3,30.01,North,5,0.0,0.0,74,0.00,SCT,,0.00,79.3,WeatherDisplay:10.37,2013-10-18 12:51:00,
2013-10-18 08:56:00,58.6,49.2,30.01,North,10,1.0,5.0,71,0.00,SCT,,0.00,119.6,WeatherDisplay:10.37,2013-10-18 12:56:00,
2013-10-18 09:01:00,58.6,49.6,30.00,North,2,2.0,5.0,72,0.00,SCT,,0.00,112.7,WeatherDisplay:10.37,2013-10-18 13:01:00,
2013-10-18 09:11:00,58.9,49.5,30.00,North,5,1.0,5.0,71,0.00,SCT,,0.00,85.1,WeatherDisplay:10.37,2013-10-18 13:11:00,
2013-10-18 09:16:00,59.0,49.2,30.01,North,10,2.0,5.0,70,0.00,SCT,,0.00,117.3,WeatherDisplay:10.37,2013-10-18 13:16:00,
2013-10-18 09:21:00,59.0,49.2,30.01,North,349,0.0,5.0,70,0.00,SCT,,0.00,131.1,WeatherDisplay:10.37,2013-10-18 13:21:00,
2013-10-18 09:26:00,59.2,49.4,30.01,North,350,2.0,5.0,70,0.00,SCT,,0.00,133.4,WeatherDisplay:10.37,2013-10-18 13:26:00,
2013-10-18 09:31:00,59.3,49.1,30.01,North,353,0.0,2.0,69,0.00,SCT,,0.00,129.9,WeatherDisplay:10.37,2013-10-18 13:31:00,
2013-10-18 09:36:00,59.3,49.5,30.01,North,349,1.0,5.0,70,0.00,SCT,,0.00,139.2,WeatherDisplay:10.37,2013-10-18 13:36:00,
2013-10-18 09:41:00,59.5,49.3,30.01,North,356,0.0,2.0,69,0.00,SCT,,0.00,135.7,WeatherDisplay:10.37,2013-10-18 13:41:00,
2013-10-18 09:46:00,59.6,49.8,30.02,North,1,0.0,2.0,70,0.00,SCT,,0.00,147.2,WeatherDisplay:10.37,2013-10-18 13:46:00,
2013-10-18 09:51:00,59.6,49.0,30.02,North,353,2.0,5.0,68,0.00,SCT,,0.00,167.9,WeatherDisplay:10.37,2013-10-18 13:51:00,
2013-10-18 09:56:00,59.8,49.2,30.02,North,354,0.0,3.0,68,0.00,SCT,,0.00,143.8,WeatherDisplay:10.37,2013-10-18 13:56:00,
2013-10-18 10:01:00,59.8,48.5,30.02,North,357,2.0,5.0,66,0.00,SCT,,0.00,151.8,WeatherDisplay:10.37,2013-10-18 14:01:00,
2013-10-18 10:11:00,60.1,48.3,30.02,NNE,21,1.0,3.0,65,0.00,SCT,,0.00,212.8,WeatherDisplay:10.37,2013-10-18 14:11:00,
2013-10-18 10:16:00,60.1,48.3,30.02,NNE,27,1.0,3.0,65,0.00,SCT,,0.00,197.8,WeatherDisplay:10.37,2013-10-18 14:16:00,
2013-10-18 10:26:00,60.4,48.2,30.02,North,6,2.0,5.0,64,0.00,SCT,,0.00,171.3,WeatherDisplay:10.37,2013-10-18 14:26:00,
2013-10-18 10:36:00,60.5,47.8,30.02,NNE,12,1.0,6.0,63,0.00,SCT,,0.00,167.9,WeatherDisplay:10.37,2013-10-18 14:36:00,
2013-10-18 10:46:00,60.7,48.0,30.03,North,355,1.0,5.0,63,0.00,SCT,,0.00,184.0,WeatherDisplay:10.37,2013-10-18 14:46:00,
2013-10-18 10:51:00,60.9,48.6,30.03,North,3,0.0,2.0,64,0.00,SCT,,0.00,173.7,WeatherDisplay:10.37,2013-10-18 14:51:00,
2013-10-18 10:56:00,61.0,49.1,30.03,North,356,2.0,5.0,65,0.00,SCT,,0.00,170.2,WeatherDisplay:10.37,2013-10-18 14:56:00,
2013-10-18 11:01:00,61.0,48.7,30.03,North,355,1.0,3.0,64,0.00,BKN,,0.00,173.7,WeatherDisplay:10.37,2013-10-18 15:01:00,
2013-10-18 11:11:00,61.2,48.9,30.03,North,1,1.0,2.0,64,0.00,BKN,,0.00,218.5,WeatherDisplay:10.37,2013-10-18 15:11:00,
2013-10-18 11:16:00,61.3,49.4,30.03,North,8,0.0,3.0,65,0.00,BKN,,0.00,238.1,WeatherDisplay:10.37,2013-10-18 15:16:00,
2013-10-18 11:21:00,61.5,49.2,30.03,NNE,18,0.0,3.0,64,0.00,BKN,,0.00,205.8,WeatherDisplay:10.37,2013-10-18 15:21:00,
2013-10-18 11:26:00,61.7,49.8,30.03,NNE,30,0.0,2.0,65,0.00,BKN,,0.00,184.0,WeatherDisplay:10.37,2013-10-18 15:26:00,
2013-10-18 11:31:00,61.8,49.5,30.03,NNE,19,0.0,2.0,64,0.00,BKN,,0.00,151.8,WeatherDisplay:10.37,2013-10-18 15:31:00,
2013-10-18 11:36:00,61.8,49.1,30.03,North,3,0.0,2.0,63,0.00,BKN,,0.00,115.0,WeatherDisplay:10.37,2013-10-18 15:36:00,
2013-10-18 11:41:00,61.8,48.6,30.03,North,10,2.0,3.0,62,0.00,BKN,,0.00,194.3,WeatherDisplay:10.37,2013-10-18 15:41:00,
2013-10-18 11:46:00,61.8,49.5,30.03,NNE,19,1.0,3.0,64,0.00,BKN,,0.00,159.8,WeatherDisplay:10.37,2013-10-18 15:46:00,
2013-10-18 11:51:00,61.8,49.1,30.03,NNE,17,1.0,2.0,63,0.00,BKN,,0.00,194.3,WeatherDisplay:10.37,2013-10-18 15:51:00,
2013-10-18 11:56:00,61.8,49.1,30.03,NNE,14,0.0,1.0,63,0.00,BKN,,0.00,208.2,WeatherDisplay:10.37,2013-10-18 15:56:00,
2013-10-18 12:01:00,62.0,50.1,30.02,NNE,14,1.0,2.0,65,0.00,BKN,,0.00,282.9,WeatherDisplay:10.37,2013-10-18 16:01:00,
2013-10-18 12:11:00,62.8,50.4,30.02,North,356,0.0,2.0,64,0.00,BKN,,0.00,301.3,WeatherDisplay:10.37,2013-10-18 16:11:00,
2013-10-18 12:16:00,62.9,49.7,30.02,North,359,0.0,2.0,62,0.00,BKN,,0.00,200.1,WeatherDisplay:10.37,2013-10-18 16:16:00,
2013-10-18 12:21:00,63.1,50.3,30.03,North,6,0.0,1.0,63,0.00,BKN,,0.00,258.8,WeatherDisplay:10.37,2013-10-18 16:21:00,
2013-10-18 12:26:00,63.4,51.0,30.03,North,7,0.0,1.0,64,0.00,BKN,,0.00,253.0,WeatherDisplay:10.37,2013-10-18 16:26:00,
2013-10-18 12:31:00,63.5,49.4,30.03,North,360,0.0,2.0,60,0.00,BKN,,0.00,228.8,WeatherDisplay:10.37,2013-10-18 16:31:00,
2013-10-18 12:36:00,63.7,50.4,30.03,North,350,0.0,5.0,62,0.00,BKN,,0.00,213.9,WeatherDisplay:10.37,2013-10-18 16:36:00,
2013-10-18 12:41:00,63.9,51.0,30.03,NNW,344,0.0,1.0,63,0.00,BKN,,0.00,208.2,WeatherDisplay:10.37,2013-10-18 16:41:00,
2013-10-18 12:46:00,63.9,51.1,30.02,NNW,344,0.0,0.0,63,0.00,BKN,,0.00,179.4,WeatherDisplay:10.37,2013-10-18 16:46:00,
2013-10-18 12:51:00,63.9,51.1,30.02,NNW,344,0.0,0.0,63,0.00,BKN,,0.00,285.2,WeatherDisplay:10.37,2013-10-18 16:51:00,
2013-10-18 12:56:00,64.2,51.3,30.02,NNW,344,0.0,0.0,63,0.00,BKN,,0.00,213.9,WeatherDisplay:10.37,2013-10-18 16:56:00,
2013-10-18 13:01:00,64.3,51.0,30.01,NNW,344,0.0,0.0,62,0.00,BKN,,0.00,232.3,WeatherDisplay:10.37,2013-10-18 17:01:00,
2013-10-18 13:11:00,64.9,50.3,30.01,NNW,344,0.0,2.0,59,0.00,BKN,,0.00,341.6,WeatherDisplay:10.37,2013-10-18 17:11:00,
2013-10-18 13:16:00,65.0,50.3,30.01,North,4,0.0,2.0,59,0.00,BKN,,0.00,280.6,WeatherDisplay:10.37,2013-10-18 17:16:00,
2013-10-18 13:21:00,65.2,51.0,30.01,NNE,16,0.0,1.0,60,0.00,BKN,,0.00,264.5,WeatherDisplay:10.37,2013-10-18 17:21:00,
2013-10-18 13:26:00,65.3,50.6,30.01,NNE,16,0.0,2.0,59,0.00,BKN,,0.00,254.2,WeatherDisplay:10.37,2013-10-18 17:26:00,
2013-10-18 13:31:00,65.5,51.2,30.00,NNE,33,0.0,0.0,60,0.00,BKN,,0.00,266.8,WeatherDisplay:10.37,2013-10-18 17:31:00,
2013-10-18 13:36:00,65.5,50.8,30.00,NE,43,0.0,0.0,59,0.00,BKN,,0.00,232.3,WeatherDisplay:10.37,2013-10-18 17:36:00,
2013-10-18 13:41:00,65.6,52.7,30.00,NE,43,0.0,1.0,63,0.00,BKN,,0.00,320.9,WeatherDisplay:10.37,2013-10-18 17:41:00,
2013-10-18 13:46:00,65.6,51.3,29.99,NE,42,0.0,2.0,60,0.00,BKN,,0.00,388.7,WeatherDisplay:10.37,2013-10-18 17:46:00,
2013-10-18 13:51:00,65.8,51.5,29.99,NE,38,1.0,3.0,60,0.00,BKN,,0.00,315.1,WeatherDisplay:10.37,2013-10-18 17:51:00,
2013-10-18 13:56:00,65.8,51.5,29.99,NE,35,0.0,2.0,60,0.00,BKN,,0.00,238.1,WeatherDisplay:10.37,2013-10-18 17:56:00,
2013-10-18 14:01:00,65.8,52.0,29.99,NE,34,0.0,1.0,61,0.00,BKN,,0.00,264.5,WeatherDisplay:10.37,2013-10-18 18:01:00,
2013-10-18 14:11:00,66.0,51.7,29.99,ENE,64,0.0,0.0,60,0.00,BKN,,0.00,258.8,WeatherDisplay:10.37,2013-10-18 18:11:00,
2013-10-18 14:16:00,66.1,51.8,29.98,ESE,106,0.0,0.0,60,0.00,BKN,,0.00,312.8,WeatherDisplay:10.37,2013-10-18 18:16:00,
2013-10-18 14:21:00,66.1,51.8,29.98,ENE,77,0.0,0.0,60,0.00,BKN,,0.00,480.7,WeatherDisplay:10.37,2013-10-18 18:21:00,
2013-10-18 14:26:00,66.3,51.1,29.98,NE,42,0.0,0.0,58,0.00,BKN,,0.00,400.2,WeatherDisplay:10.37,2013-10-18 18:26:00,
2013-10-18 14:31:00,66.8,52.5,29.98,NE,42,0.0,0.0,60,0.00,BKN,,0.00,250.7,WeatherDisplay:10.37,2013-10-18 18:31:00,
2013-10-18 14:36:00,67.1,52.3,29.98,NE,42,0.0,0.0,59,0.00,BKN,,0.00,338.1,WeatherDisplay:10.37,2013-10-18 18:36:00,
2013-10-18 14:41:00,67.3,52.0,29.98,NE,42,0.0,0.0,58,0.00,BKN,,0.00,311.6,WeatherDisplay:10.37,2013-10-18 18:41:00,
2013-10-18 14:46:00,67.5,52.7,29.98,NE,42,0.0,0.0,59,0.00,BKN,,0.00,311.6,WeatherDisplay:10.37,2013-10-18 18:46:00,
2013-10-18 14:51:00,67.6,52.8,29.98,NE,42,0.0,0.0,59,0.00,BKN,,0.00,250.7,WeatherDisplay:10.37,2013-10-18 18:51:00,
2013-10-18 14:56:00,67.5,52.7,29.98,NE,42,0.0,0.0,59,0.00,BKN,,0.00,319.7,WeatherDisplay:10.37,2013-10-18 18:56:00,
2013-10-18 15:01:00,67.5,53.2,29.97,NE,42,0.0,0.0,60,0.00,BKN,,0.00,317.4,WeatherDisplay:10.37,2013-10-18 19:01:00,
2013-10-18 15:11:00,67.6,52.3,29.97,NE,42,0.0,0.0,58,0.00,BKN,,0.00,246.1,WeatherDisplay:10.37,2013-10-18 19:11:00,
2013-10-18 15:16:00,67.8,52.5,29.98,NE,42,0.0,0.0,58,0.00,BKN,,0.00,131.1,WeatherDisplay:10.37,2013-10-18 19:16:00,
2013-10-18 15:21:00,67.6,52.8,29.98,NE,42,0.0,0.0,59,0.00,BKN,,0.00,167.9,WeatherDisplay:10.37,2013-10-18 19:21:00,
2013-10-18 15:26:00,67.4,52.6,29.98,NE,42,0.0,0.0,59,0.00,BKN,,0.00,88.5,WeatherDisplay:10.37,2013-10-18 19:26:00,
2013-10-18 15:31:00,67.4,53.5,29.98,NE,42,0.0,0.0,61,0.00,BKN,,0.00,115.0,WeatherDisplay:10.37,2013-10-18 19:31:00,
2013-10-18 15:36:00,67.3,53.0,29.97,NE,42,0.0,0.0,60,0.00,BKN,,0.00,224.3,WeatherDisplay:10.37,2013-10-18 19:36:00,
2013-10-18 15:41:00,67.4,53.9,29.97,NE,42,0.0,0.0,62,0.00,BKN,,0.00,141.4,WeatherDisplay:10.37,2013-10-18 19:41:00,
2013-10-18 15:46:00,67.3,52.5,29.97,NE,42,0.0,0.0,59,0.00,BKN,,0.00,170.2,WeatherDisplay:10.37,2013-10-18 19:46:00,
2013-10-18 15:51:00,67.3,53.4,29.97,NE,42,0.0,0.0,61,0.00,BKN,,0.00,167.9,WeatherDisplay:10.37,2013-10-18 19:51:00,
2013-10-18 15:56:00,67.3,53.8,29.97,ENE,65,0.0,0.0,62,0.00,BKN,,0.00,146.1,WeatherDisplay:10.37,2013-10-18 19:56:00,
2013-10-18 16:01:00,67.3,53.8,29.97,ESE,114,0.0,0.0,62,0.00,BKN,,0.00,112.7,WeatherDisplay:10.37,2013-10-18 20:01:00,
2013-10-18 16:11:00,67.1,53.2,29.97,SE,128,0.0,0.0,61,0.00,BKN,,0.00,95.5,WeatherDisplay:10.37,2013-10-18 20:11:00,
2013-10-18 16:16:00,67.1,53.2,29.97,SE,128,0.0,0.0,61,0.00,BKN,,0.00,141.4,WeatherDisplay:10.37,2013-10-18 20:16:00,
2013-10-18 16:21:00,66.9,53.5,29.97,SE,128,0.0,0.0,62,0.00,BKN,,0.00,155.3,WeatherDisplay:10.37,2013-10-18 20:21:00,
2013-10-18 16:26:00,66.8,53.4,29.97,SE,128,0.0,0.0,62,0.00,BKN,,0.00,146.1,WeatherDisplay:10.37,2013-10-18 20:26:00,
2013-10-18 16:31:00,66.6,53.2,29.96,SE,128,0.0,0.0,62,0.00,BKN,,0.00,112.7,WeatherDisplay:10.37,2013-10-18 20:31:00,
2013-10-18 16:36:00,66.4,53.0,29.96,SE,128,0.0,0.0,62,0.00,BKN,,0.00,58.6,WeatherDisplay:10.37,2013-10-18 20:36:00,
2013-10-18 16:46:00,66.4,53.4,29.96,SE,128,0.0,0.0,63,0.00,BKN,,0.00,112.7,WeatherDisplay:10.37,2013-10-18 20:46:00,
2013-10-18 16:51:00,66.3,52.9,29.96,ESE,120,0.0,0.0,62,0.00,BKN,,0.00,79.3,WeatherDisplay:10.37,2013-10-18 20:51:00,
2013-10-18 16:56:00,66.3,53.8,29.96,ESE,109,0.0,0.0,64,0.00,BKN,,0.00,82.8,WeatherDisplay:10.37,2013-10-18 20:56:00,
2013-10-18 17:01:00,66.4,54.7,29.97,ESE,107,0.0,0.0,66,0.00,BKN,,0.00,66.7,WeatherDisplay:10.37,2013-10-18 21:01:00,
2013-10-18 17:11:00,66.4,55.1,29.97,ESE,107,0.0,0.0,67,0.00,BKN,,0.00,85.1,WeatherDisplay:10.37,2013-10-18 21:11:00,
2013-10-18 17:16:00,66.4,55.1,29.97,ESE,107,0.0,0.0,67,0.00,BKN,,0.00,52.9,WeatherDisplay:10.37,2013-10-18 21:16:00,
2013-10-18 17:21:00,66.3,55.0,29.97,ESE,107,0.0,0.0,67,0.00,BKN,,0.00,61.0,WeatherDisplay:10.37,2013-10-18 21:21:00,
2013-10-18 17:26:00,66.3,55.0,29.97,ESE,107,0.0,0.0,67,0.00,BKN,,0.00,50.6,WeatherDisplay:10.37,2013-10-18 21:26:00,
2013-10-18 17:31:00,66.3,55.4,29.97,ESE,107,0.0,0.0,68,0.00,BKN,,0.00,61.0,WeatherDisplay:10.37,2013-10-18 21:31:00,
2013-10-18 17:36:00,66.1,55.6,29.97,ESE,107,0.0,0.0,69,0.00,BKN,,0.00,36.8,WeatherDisplay:10.37,2013-10-18 21:36:00,
2013-10-18 17:41:00,66.1,56.0,29.97,ESE,107,0.0,0.0,70,0.00,BKN,,0.00,36.8,WeatherDisplay:10.37,2013-10-18 21:41:00,
2013-10-18 17:46:00,66.0,55.5,29.96,ESE,107,0.0,0.0,69,0.00,BKN,,0.00,36.8,WeatherDisplay:10.37,2013-10-18 21:46:00,
2013-10-18 17:51:00,66.0,55.9,29.96,ESE,107,0.0,0.0,70,0.00,BKN,,0.00,29.9,WeatherDisplay:10.37,2013-10-18 21:51:00,
2013-10-18 17:56:00,65.8,55.7,29.96,ESE,107,0.0,0.0,70,0.00,BKN,,0.00,26.4,WeatherDisplay:10.37,2013-10-18 21:56:00,
2013-10-18 18:01:00,65.6,55.9,29.96,ESE,107,0.0,0.0,71,0.00,BKN,,0.00,32.2,WeatherDisplay:10.37,2013-10-18 22:01:00,
2013-10-18 18:11:00,65.3,55.6,29.96,ESE,107,0.0,0.0,71,0.00,BKN,,0.00,28.8,WeatherDisplay:10.37,2013-10-18 22:11:00,
2013-10-18 18:16:00,65.1,56.2,29.96,ESE,107,0.0,0.0,73,0.00,BKN,,0.00,28.8,WeatherDisplay:10.37,2013-10-18 22:16:00,
2013-10-18 18:21:00,64.8,55.9,29.96,ESE,107,0.0,0.0,73,0.00,BKN,,0.00,12.7,WeatherDisplay:10.37,2013-10-18 22:21:00,
2013-10-18 18:26:00,64.7,55.8,29.96,ESE,107,0.0,0.0,73,0.00,BKN,,0.00,5.8,WeatherDisplay:10.37,2013-10-18 22:26:00,
2013-10-18 18:31:00,64.5,56.0,29.96,ESE,107,0.0,0.0,74,0.00,BKN,,0.00,0.0,WeatherDisplay:10.37,2013-10-18 22:31:00,
2013-10-18 18:36:00,64.2,55.8,29.96,ESE,112,0.0,0.0,74,0.00,BKN,,0.00,0.0,WeatherDisplay:10.37,2013-10-18 22:36:00,
2013-10-18 18:41:00,64.0,55.5,29.96,ESE,115,0.0,0.0,74,0.00,BKN,,0.00,0.0,WeatherDisplay:10.37,2013-10-18 22:41:00,
2013-10-18 18:46:00,63.8,55.4,29.97,ESE,115,0.0,0.0,74,0.00,BKN,,0.00,0.0,WeatherDisplay:10.37,2013-10-18 22:46:00,
2013-10-18 18:51:00,63.5,55.4,29.97,ESE,115,0.0,0.0,75,0.00,BKN,,0.00,0.0,WeatherDisplay:10.37,2013-10-18 22:51:00,
2013-10-18 18:56:00,63.4,55.7,29.97,ESE,115,0.0,0.0,76,0.00,BKN,,0.00,0.0,WeatherDisplay:10.37,2013-10-18 22:56:00,
2013-10-18 19:01:00,63.1,55.4,29.97,ESE,115,0.0,0.0,76,0.00,SCT,,0.00,0.0,WeatherDisplay:10.37,2013-10-18 23:01:00,
2013-10-18 19:11:00,62.7,55.4,29.97,ESE,115,0.0,0.0,77,0.00,SCT,,0.00,0.0,WeatherDisplay:10.37,2013-10-18 23:11:00,
2013-10-18 19:16:00,62.6,55.6,29.98,ESE,115,0.0,0.0,78,0.00,SCT,,0.00,0.0,WeatherDisplay:10.37,2013-10-18 23:16:00,
2013-10-18 19:21:00,62.6,55.6,29.98,ESE,115,0.0,0.0,78,0.00,SCT,,0.00,0.0,WeatherDisplay:10.37,2013-10-18 23:21:00,
2013-10-18 19:26:00,62.4,55.8,29.98,ESE,115,0.0,0.0,79,0.00,SCT,,0.00,0.0,WeatherDisplay:10.37,2013-10-18 23:26:00,
2013-10-18 19:31:00,62.4,55.8,29.98,ESE,115,0.0,0.0,79,0.00,SCT,,0.00,0.0,WeatherDisplay:10.37,2013-10-18 23:31:00,
2013-10-18 19:36:00,62.3,56.0,29.98,ESE,115,0.0,0.0,80,0.00,SCT,,0.00,0.0,WeatherDisplay:10.37,2013-10-18 23:36:00,
2013-10-18 19:41:00,62.3,56.0,29.98,ESE,115,0.0,0.0,80,0.00,SCT,,0.00,0.0,WeatherDisplay:10.37,2013-10-18 23:41:00,
2013-10-18 19:46:00,62.1,55.9,29.98,ESE,115,0.0,0.0,80,0.00,SCT,,0.00,0.0,WeatherDisplay:10.37,2013-10-18 23:46:00,
2013-10-18 19:51:00,62.1,56.2,29.98,ESE,115,0.0,0.0,81,0.00,SCT,,0.00,0.0,WeatherDisplay:10.37,2013-10-18 23:51:00,
2013-10-18 20:01:00,62.1,56.5,29.98,ESE,115,0.0,0.0,82,0.00,BKN,,0.00,0.0,WeatherDisplay:10.37,2013-10-19 00:01:00,
2013-10-18 20:11:00,62.0,56.4,29.98,ESE,115,0.0,0.0,82,0.00,BKN,,0.00,0.0,WeatherDisplay:10.37,2013-10-19 00:11:00,
2013-10-18 20:16:00,62.0,56.4,29.98,ESE,115,0.0,0.0,82,0.00,BKN,,0.00,0.0,WeatherDisplay:10.37,2013-10-19 00:16:00,
2013-10-18 20:21:00,62.0,56.4,29.98,ESE,115,0.0,0.0,82,0.00,BKN,,0.00,0.0,WeatherDisplay:10.37,2013-10-19 00:21:00,
2013-10-18 20:26:00,61.8,55.9,29.98,ESE,115,0.0,0.0,81,0.00,BKN,,0.00,0.0,WeatherDisplay:10.37,2013-10-19 00:26:00,
2013-10-18 20:31:00,61.8,55.9,29.98,ESE,115,0.0,0.0,81,0.00,BKN,,0.00,0.0,WeatherDisplay:10.37,2013-10-19 00:31:00,
2013-10-18 20:36:00,61.8,55.9,29.98,ESE,115,0.0,0.0,81,0.00,BKN,,0.00,0.0,WeatherDisplay:10.37,2013-10-19 00:36:00,
2013-10-18 20:41:00,61.8,55.9,29.98,ESE,115,0.0,0.0,81,0.00,BKN,,0.00,0.0,WeatherDisplay:10.37,2013-10-19 00:41:00,
2013-10-18 20:46:00,61.8,55.9,29.98,ESE,115,0.0,0.0,81,0.00,BKN,,0.00,0.0,WeatherDisplay:10.37,2013-10-19 00:46:00,
2013-10-18 20:51:00,61.8,55.9,29.98,ESE,115,0.0,0.0,81,0.00,BKN,,0.00,0.0,WeatherDisplay:10.37,2013-10-19 00:51:00,
2013-10-18 20:56:00,61.8,55.9,29.98,ESE,115,0.0,0.0,81,0.00,BKN,,0.00,0.0,WeatherDisplay:10.37,2013-10-19 00:56:00,
2013-10-18 21:01:00,61.8,55.9,29.98,ESE,115,0.0,0.0,81,0.00,OVC,,0.00,0.0,WeatherDisplay:10.37,2013-10-19 01:01:00,
2013-10-18 21:11:00,62.0,56.1,29.98,ESE,115,0.0,0.0,81,0.00,OVC,,0.00,0.0,WeatherDisplay:10.37,2013-10-19 01:11:00,
2013-10-18 21:16:00,62.0,56.1,29.98,ESE,115,0.0,0.0,81,0.00,OVC,,0.00,0.0,WeatherDisplay:10.37,2013-10-19 01:16:00,
2013-10-18 21:21:00,62.0,56.5,29.98,ESE,115,0.0,0.0,82,0.00,OVC,,0.00,0.0,WeatherDisplay:10.37,2013-10-19 01:21:00,
2013-10-18 21:26:00,62.1,56.5,29.98,ESE,115,0.0,0.0,82,0.00,OVC,,0.00,0.0,WeatherDisplay:10.37,2013-10-19 01:26:00,
2013-10-18 21:31:00,62.1,56.5,29.98,ESE,115,0.0,0.0,82,0.00,OVC,,0.00,0.0,WeatherDisplay:10.37,2013-10-19 01:31:00,
2013-10-18 21:36:00,62.1,56.5,29.98,ESE,115,0.0,0.0,82,0.00,OVC,,0.00,0.0,WeatherDisplay:10.37,2013-10-19 01:36:00,
2013-10-18 21:41:00,62.1,56.5,29.98,ESE,115,0.0,0.0,82,0.00,OVC,,0.00,0.0,WeatherDisplay:10.37,2013-10-19 01:41:00,
2013-10-18 21:46:00,62.1,56.5,29.98,ESE,115,0.0,0.0,82,0.00,OVC,,0.00,0.0,WeatherDisplay:10.37,2013-10-19 01:46:00,
2013-10-18 21:51:00,62.1,56.5,29.98,ESE,115,0.0,0.0,82,0.00,OVC,,0.00,0.0,WeatherDisplay:10.37,2013-10-19 01:51:00,
2013-10-18 21:56:00,62.1,56.9,29.98,ESE,115,0.0,0.0,83,0.00,OVC,,0.00,0.0,WeatherDisplay:10.37,2013-10-19 01:56:00,
2013-10-18 22:01:00,62.1,56.9,29.99,ESE,115,0.0,0.0,83,0.00,OVC,,0.00,0.0,WeatherDisplay:10.37,2013-10-19 02:01:00,
2013-10-18 22:11:00,62.1,56.9,29.99,ESE,115,0.0,0.0,83,0.00,OVC,,0.00,0.0,WeatherDisplay:10.37,2013-10-19 02:11:00,
2013-10-18 22:16:00,62.1,57.2,29.99,ESE,115,0.0,0.0,84,0.00,OVC,,0.00,0.0,WeatherDisplay:10.37,2013-10-19 02:16:00,
2013-10-18 22:21:00,62.1,56.9,29.99,ESE,115,0.0,0.0,83,0.00,OVC,,0.00,0.0,WeatherDisplay:10.37,2013-10-19 02:21:00,
2013-10-18 22:26:00,62.1,56.9,29.99,ESE,115,0.0,0.0,83,0.00,OVC,,0.00,0.0,WeatherDisplay:10.37,2013-10-19 02:26:00,
2013-10-18 22:31:00,62.1,56.9,29.99,ESE,115,0.0,0.0,83,0.00,OVC,,0.00,0.0,WeatherDisplay:10.37,2013-10-19 02:31:00,
2013-10-18 22:36:00,62.1,56.9,29.99,ESE,115,0.0,0.0,83,0.00,OVC,,0.00,0.0,WeatherDisplay:10.37,2013-10-19 02:36:00,
2013-10-18 22:41:00,62.1,57.2,29.99,ESE,115,0.0,0.0,84,0.00,OVC,,0.00,0.0,WeatherDisplay:10.37,2013-10-19 02:41:00,
2013-10-18 22:46:00,62.1,57.2,29.98,ESE,115,0.0,0.0,84,0.00,OVC,,0.00,0.0,WeatherDisplay:10.37,2013-10-19 02:46:00,
2013-10-18 22:51:00,62.1,57.2,29.98,ESE,115,0.0,0.0,84,0.00,OVC,,0.00,0.0,WeatherDisplay:10.37,2013-10-19 02:51:00,
2013-10-18 22:56:00,62.1,57.2,29.98,ESE,115,0.0,0.0,84,0.00,OVC,,0.00,0.0,WeatherDisplay:10.37,2013-10-19 02:56:00,
2013-10-18 23:01:00,62.0,56.8,29.98,ESE,115,0.0,0.0,83,0.00,BKN,,0.00,0.0,WeatherDisplay:10.37,2013-10-19 03:01:00,
2013-10-18 23:11:00,62.0,57.1,29.98,ESE,115,0.0,0.0,84,0.00,BKN,,0.00,0.0,WeatherDisplay:10.37,2013-10-19 03:11:00,
2013-10-18 23:16:00,62.0,57.1,29.98,ESE,115,0.0,0.0,84,0.00,BKN,,0.00,0.0,WeatherDisplay:10.37,2013-10-19 03:16:00,
2013-10-18 23:21:00,62.0,57.1,29.98,ESE,115,0.0,0.0,84,0.00,BKN,,0.00,0.0,WeatherDisplay:10.37,2013-10-19 03:21:00,
2013-10-18 23:31:00,62.0,57.1,29.98,ESE,115,0.0,0.0,84,0.00,BKN,,0.00,0.0,WeatherDisplay:10.37,2013-10-19 03:31:00,
2013-10-18 23:36:00,62.0,57.1,29.98,ESE,115,0.0,0.0,84,0.00,BKN,,0.00,0.0,WeatherDisplay:10.37,2013-10-19 03:36:00,
2013-10-18 23:41:00,61.9,57.0,29.98,ESE,115,0.0,0.0,84,0.00,BKN,,0.00,0.0,WeatherDisplay:10.37,2013-10-19 03:41:00,
2013-10-18 23:46:00,61.8,56.9,29.98,ESE,115,0.0,0.0,84,0.00,BKN,,0.00,0.0,WeatherDisplay:10.37,2013-10-19 03:46:00,
2013-10-18 23:51:00,61.8,56.9,29.98,ESE,115,0.0,0.0,84,0.00,BKN,,0.00,0.0,WeatherDisplay:10.37,2013-10-19 03:51:00,
2013-10-18 23:56:00,61.8,56.9,29.98,ESE,115,0.0,0.0,84,0.00,BKN,,0.00,0.0,WeatherDisplay:10.37,2013-10-19 03:56:00,